GW1618 Weather Reports


time (UTC)temp
F
wind
direction
speed
knots
gust
knots
rain 1hr
in
rain 24hr
in
rain mn
in
humidity
%
barometer
mb
20260507215729 59 9 7.8 10.4 0.00 0.00 0.00 57 1018.2
20260507215523 59 9 8.7 10.4 0.00 0.00 0.00 57 1018.2
20260507214728 59 15 9.6 11.3 0.00 0.00 0.00 58 1018.2
20260507214230 59 14 10.4 12.2 0.00 0.00 0.00 60 1018.2
20260507213732 58 4 10.4 12.2 0.00 0.00 0.00 60 1018.2
20260507213228 59 4 9.6 12.2 0.00 0.00 0.00 59 1018.5
20260507212731 59 13 8.7 12.2 0.00 0.00 0.00 61 1018.5
20260507212232 59 4 8.7 13.0 0.00 0.00 0.00 59 1018.5
20260507211733 58 344 9.6 13.0 0.00 0.00 0.00 61 1018.6
20260507211229 58 15 10.4 13.0 0.00 0.00 0.00 61 1018.6
20260507210732 58 9 10.4 12.2 0.00 0.00 0.00 61 1018.6
20260507210230 58 16 9.6 12.2 0.00 0.00 0.00 62 1018.7
20260507205730 58 4 8.7 10.4 0.00 0.00 0.00 62 1018.7
20260507205231 58 4 7.8 10.4 0.00 0.00 0.00 62 1018.7
20260507204729 58 9 7.0 10.4 0.00 0.00 0.00 61 1018.9
20260507204228 58 19 7.8 10.4 0.00 0.00 0.00 60 1018.9
20260507203731 58 9 7.8 10.4 0.00 0.00 0.00 60 1018.9
20260507203230 58 4 7.8 11.3 0.00 0.00 0.00 61 1019.0
20260507203021 58 9 7.8 11.3 0.00 0.00 0.00 60 1019.0
20260507202230 59 351 7.0 11.3 0.00 0.00 0.00 60 1019.0
20260507201728 60 23 5.2 11.3 0.00 0.00 0.00 58 1019.1
20260507201229 62 359 2.6 11.3 0.00 0.00 0.00 54 1019.1
20260507200733 61 125 2.6 7.0 0.00 0.00 0.00 53 1019.1
20260507200230 60 201 2.6 7.0 0.00 0.00 0.00 53 1019.2
20260507195731 60 197 2.6 5.2 0.00 0.00 0.00 54 1019.2
20260507195229 60 200 2.6 6.1 0.00 0.00 0.00 53 1019.2
20260507194733 60 217 1.7 6.1 0.00 0.00 0.00 52 1019.4
20260507194229 60 148 1.7 3.5 0.00 0.00 0.00 53 1019.4
20260507193730 59 179 2.6 6.1 0.00 0.00 0.00 55 1019.4
20260507193208 59 204 2.6 6.1 0.00 0.00 0.00 55 1019.5
20260507192710 59 196 1.7 5.2 0.00 0.00 0.00 55 1019.5
20260507192210 59 212 1.7 2.6 0.00 0.00 0.00 56 1019.5
20260507191711 58 147 0.9 2.6 0.00 0.00 0.00 59 1019.6
20260507191209 57 353 2.6 6.1 0.00 0.00 0.00 60 1019.6
20260507190950 56 277 3.5 6.1 0.00 0.00 0.00 63 1019.6
20260507190209 56 17 3.5 5.2 0.00 0.00 0.00 64 1019.6
20260507185731 56 343 2.6 6.1 0.00 0.00 0.00 64 1019.6
20260507184705 56 354 2.6 6.1 0.00 0.00 0.00 63 1019.7
20260507184202 57 329 1.7 4.3 0.00 0.00 0.00 59 1019.7
20260507183702 57 359 1.7 5.2 0.00 0.00 0.00 60 1019.7
20260507183228 57 213 1.7 5.2 0.00 0.00 0.00 60 1019.7
20260507182208 56 264 2.6 5.2 0.00 0.00 0.00 61 1019.7
20260507181712 56 235 2.6 5.2 0.00 0.00 0.00 60 1019.8
20260507181157 56 234 1.7 4.3 0.00 0.00 0.00 61 1019.8
20260507180646 56 265 0.9 3.5 0.00 0.00 0.00 62 1019.8
20260507180134 56 211 0.9 3.5 0.00 0.00 0.00 63 1020.1
20260507175912 55 213 2.6 6.1 0.00 0.00 0.00 64 1020.1
20260507175131 55 202 2.6 6.1 0.00 0.00 0.00 64 1020.1
20260507174629 55 241 2.6 6.1 0.00 0.00 0.00 64 1020.1
20260507174417 55 247 3.5 6.1 0.00 0.00 0.00 64 1020.1
20260507173631 55 301 3.5 6.1 0.00 0.00 0.00 65 1020.1
20260507173130 55 277 3.5 6.1 0.00 0.00 0.00 64 1020.1
20260507172629 55 269 3.5 7.8 0.00 0.00 0.00 64 1020.1
20260507172419 56 265 2.6 7.8 0.00 0.00 0.00 64 1020.1
20260507171920 56 235 1.7 4.3 0.00 0.00 0.00 62 1020.1
20260507171409 55 155 1.7 5.2 0.00 0.00 0.00 64 1020.1
20260507170610 54 190 1.7 5.2 0.00 0.00 0.00 66 1020.1
20260507170109 53 160 1.7 5.2 0.00 0.00 0.00 68 1020.2
20260507165846 53 165 1.7 3.5 0.00 0.00 0.00 68 1020.2
20260507165129 53 204 1.7 3.5 0.00 0.00 0.00 68 1020.2
20260507164111 53 246 1.7 3.5 0.00 0.00 0.00 68 1020.2
20260507163608 53 262 0.9 3.5 0.00 0.00 0.00 68 1020.2
20260507163108 53 281 0.9 3.5 0.00 0.00 0.00 69 1020.2
20260507162609 53 179 1.7 3.5 0.00 0.00 0.00 69 1020.2
20260507162107 53 228 0.9 3.5 0.00 0.00 0.00 69 1020.2
20260507161843 53 209 0.9 3.5 0.00 0.00 0.00 69 1020.3
20260507161346 53 9 0.9 2.6 0.00 0.00 0.00 69 1020.3
20260507160846 53 119 1.7 3.5 0.00 0.00 0.00 70 1020.3
20260507160105 53 240 0.9 3.5 0.00 0.00 0.00 70 1020.4
20260507155538 53 140 0.9 3.5 0.00 0.00 0.00 70 1020.4
20260507155033 52 169 1.7 3.5 0.00 0.00 0.00 70 1020.4
20260507154537 52 234 0.9 2.6 0.00 0.00 0.00 70 1020.4
20260507154309 52 76 0.9 2.6 0.00 0.00 0.00 71 1020.4
20260507153527 52 128 0.9 2.6 0.00 0.00 0.00 72 1020.6
20260507153021 52 281 0.9 1.7 0.00 0.00 0.00 71 1020.6
20260507152516 52 240 0.9 1.7 0.00 0.00 0.00 71 1020.6
20260507152010 52 217 0.9 1.7 0.00 0.00 0.00 72 1020.6
20260507151509 52 232 0.9 1.7 0.00 0.00 0.00 72 1020.6
20260507151011 51 116 0.9 1.7 0.00 0.00 0.00 72 1020.6
20260507150505 51 113 0.9 2.6 0.00 0.00 0.00 73 1020.5
20260507150237 51 303 0.9 2.6 0.00 0.00 0.00 73 1020.5
20260507145501 51 281 1.7 3.5 0.00 0.00 0.00 72 1020.5
20260507145243 51 296 2.6 3.5 0.00 0.00 0.00 72 1020.4
20260507144804 51 296 1.7 3.5 0.00 0.00 0.00 72 1020.4
20260507143450 51 13 0.9 2.6 0.00 0.00 0.00 73 1020.4
20260507143229 51 199 0.9 2.6 0.00 0.00 0.00 73 1020.4
20260507142439 51 231 1.7 2.6 0.00 0.00 0.00 74 1020.4
20260507141935 51 292 1.7 3.5 0.00 0.00 0.00 74 1020.3
20260507141434 50 304 1.7 4.3 0.00 0.00 0.00 74 1020.3
20260507140932 50 284 2.6 4.3 0.00 0.00 0.00 74 1020.3
20260507140431 50 333 2.6 5.2 0.00 0.00 0.00 73 1020.2
20260507135929 50 294 2.6 5.2 0.00 0.00 0.00 73 1020.2
20260507135431 50 317 1.7 4.3 0.00 0.00 0.00 73 1020.2
20260507134929 50 317 1.7 4.3 0.00 0.00 0.00 74 1020.2
20260507134433 50 339 1.7 2.6 0.00 0.00 0.00 73 1020.2
20260507134212 50 337 1.7 2.6 0.00 0.00 0.00 74 1020.2
20260507133706 50 359 1.7 2.6 0.00 0.00 0.00 74 1020.1
20260507132931 50 36 1.7 2.6 0.00 0.00 0.00 74 1020.1
20260507132434 50 325 1.7 3.5 0.00 0.00 0.00 73 1020.1
20260507131930 50 335 2.6 3.5 0.00 0.00 0.00 73 1020.2
20260507131421 50 336 2.6 4.3 0.00 0.00 0.00 73 1020.2
20260507130919 50 319 2.6 5.2 0.00 0.00 0.00 73 1020.2
20260507130418 50 359 2.6 5.2 0.00 0.00 0.00 72 1020.2
20260507130154 51 313 2.6 4.3 0.00 0.00 0.00 73 1020.2
20260507125418 51 347 1.7 4.3 0.00 0.00 0.00 73 1020.2
20260507124917 51 327 1.7 5.2 0.00 0.00 0.00 73 1020.2
20260507124415 51 285 2.6 5.2 0.00 0.00 0.00 74 1020.2
20260507123908 51 317 2.6 5.2 0.00 0.00 0.00 73 1020.2
20260507123408 51 327 2.6 3.5 0.00 0.00 0.00 74 1020.2
20260507123144 51 289 1.7 3.5 0.00 0.00 0.00 75 1020.2
20260507122642 51 337 1.7 3.5 0.00 0.00 0.00 74 1020.2
20260507122137 51 303 1.7 2.6 0.00 0.00 0.00 73 1020.2
20260507121401 51 332 0.9 2.6 0.00 0.00 0.00 74 1020.2
20260507120902 51 323 1.7 2.6 0.00 0.00 0.00 74 1020.2
20260507120401 51 344 1.7 3.5 0.00 0.00 0.00 73 1020.3
20260507120156 51 322 2.6 4.3 0.00 0.00 0.00 73 1020.3
20260507115648 51 335 3.5 4.3 0.00 0.00 0.00 73 1020.3
20260507114850 51 337 3.5 5.2 0.00 0.00 0.00 73 1020.4
20260507114350 51 304 2.6 5.2 0.00 0.00 0.00 73 1020.4
20260507113849 51 354 1.7 4.3 0.00 0.00 0.00 73 1020.4
20260507113349 51 341 1.7 4.3 0.00 0.00 0.00 73 1020.5
20260507112847 51 337 1.7 2.6 0.00 0.00 0.00 74 1020.5
20260507112408 51 346 1.7 2.6 0.00 0.00 0.00 73 1020.5
20260507111345 51 302 0.9 2.6 0.00 0.00 0.00 74 1020.4
20260507110835 51 306 0.9 1.7 0.00 0.00 0.00 74 1020.4
20260507110332 51 4 0.9 1.7 0.00 0.00 0.00 74 1020.5
20260507110104 52 344 0.9 2.6 0.00 0.00 0.00 75 1020.5
20260507105331 52 281 1.7 2.6 0.00 0.00 0.00 74 1020.5
20260507104823 52 240 1.7 3.5 0.00 0.00 0.00 74 1020.5
20260507104327 52 256 1.7 3.5 0.00 0.00 0.00 74 1020.5
20260507103823 52 266 1.7 3.5 0.00 0.00 0.00 74 1020.5
20260507103322 52 254 0.9 3.5 0.00 0.00 0.00 75 1020.5
20260507102819 52 280 0.9 2.6 0.00 0.00 0.00 75 1020.5
20260507102307 52 236 1.7 2.6 0.00 0.00 0.00 75 1020.5
20260507101809 52 279 1.7 2.6 0.00 0.00 0.00 75 1020.6
20260507101308 52 280 1.7 2.6 0.00 0.00 0.00 74 1020.6
20260507100809 52 259 0.9 2.6 0.00 0.00 0.00 75 1020.6
20260507100303 52 284 1.7 3.5 0.00 0.00 0.00 74 1020.4
20260507095802 52 218 1.7 4.3 0.00 0.00 0.00 74 1020.4
20260507095306 52 207 1.7 4.3 0.00 0.00 0.00 74 1020.4
20260507094802 52 215 1.7 3.5 0.00 0.00 0.00 75 1020.6
20260507094259 52 218 1.7 3.5 0.00 0.00 0.00 75 1020.6
20260507093751 52 237 1.7 3.5 0.00 0.00 0.00 74 1020.6
20260507093246 52 217 1.7 4.3 0.00 0.00 0.00 75 1020.7
20260507092731 52 233 2.6 4.3 0.00 0.00 0.00 75 1020.7
20260507092232 52 202 2.6 4.3 0.00 0.00 0.00 75 1020.7
20260507091724 52 241 1.7 5.2 0.00 0.00 0.00 75 1020.7
20260507091222 52 226 1.7 5.2 0.00 0.00 0.00 75 1020.7
20260507090715 52 281 1.7 3.5 0.00 0.00 0.00 75 1020.7
20260507090208 53 263 1.7 4.3 0.00 0.00 0.00 74 1020.7
20260507085703 53 239 2.6 5.2 0.00 0.00 0.00 74 1020.7
20260507085204 53 249 1.7 5.2 0.00 0.00 0.00 74 1020.7
20260507084707 53 216 1.7 3.5 0.00 0.00 0.00 74 1020.7
20260507084203 53 250 2.6 6.1 0.00 0.00 0.00 74 1020.7
20260507083703 53 241 3.5 6.1 0.00 0.00 0.00 73 1020.7
20260507083201 53 253 3.5 5.2 0.00 0.00 0.00 74 1020.7
20260507082702 53 258 2.6 5.2 0.00 0.00 0.00 73 1020.7
20260507081950 53 221 2.6 5.2 0.00 0.00 0.00 72 1020.7
20260507081201 53 246 2.6 5.2 0.00 0.00 0.00 72 1020.7
20260507080706 53 256 2.6 4.3 0.00 0.00 0.00 72 1020.7
20260507080204 53 244 2.6 5.2 0.00 0.00 0.00 72 1020.7
20260507075702 53 217 2.6 5.2 0.00 0.00 0.00 72 1020.7
20260507075202 53 258 2.6 6.1 0.00 0.00 0.00 71 1020.7
20260507074701 53 273 3.5 6.1 0.00 0.00 0.00 71 1020.7
20260507074203 53 267 3.5 8.7 0.00 0.00 0.00 71 1020.7
20260507073700 53 244 3.5 8.7 0.00 0.00 0.00 70 1020.7
20260507073159 53 217 2.6 6.1 0.00 0.00 0.00 70 1020.6
20260507072653 53 264 2.6 6.1 0.00 0.00 0.00 70 1020.6
20260507072147 53 265 1.7 5.2 0.00 0.00 0.00 71 1020.6
20260507071924 53 275 2.6 5.2 0.00 0.00 0.00 70 1020.7
20260507071141 53 294 2.6 5.2 0.00 0.00 0.00 70 1020.7
20260507070640 53 229 2.6 4.3 0.00 0.00 0.00 70 1020.7
20260507070140 53 229 2.6 5.2 0.00 0.00 0.00 71 1020.6
20260507065637 53 242 2.6 7.8 0.00 0.00 0.00 70 1020.6
20260507065137 53 242 2.6 7.8 0.00 0.00 0.00 70 1020.6
20260507064637 53 258 2.6 6.1 0.00 0.00 0.00 70 1020.7
20260507064135 53 237 2.6 6.1 0.00 0.00 0.00 70 1020.7
20260507063632 54 194 3.5 7.8 0.00 0.00 0.00 70 1020.7
20260507063133 53 188 4.3 7.8 0.00 0.00 0.00 70 1020.7
20260507062633 53 181 4.3 8.7 0.00 0.00 0.00 71 1020.7
20260507062422 53 186 3.5 8.7 0.00 0.00 0.00 70 1020.7
20260507061633 54 193 2.6 7.8 0.00 0.00 0.00 71 1020.7
20260507061137 54 204 2.6 3.5 0.00 0.00 0.00 70 1020.7
20260507060631 54 223 1.7 4.3 0.00 0.00 0.00 70 1020.7
20260507060131 54 242 1.7 4.3 0.00 0.00 0.00 70 1020.7
20260507055637 54 203 1.7 4.3 0.00 0.00 0.00 71 1020.7
20260507055135 54 257 2.6 7.8 0.00 0.00 0.00 71 1020.7
20260507054658 54 237 3.5 7.8 0.00 0.00 0.00 70 1020.7
20260507053631 54 201 2.6 6.1 0.00 0.00 0.00 70 1020.7
20260507053121 54 225 2.6 5.2 0.00 0.00 0.00 70 1020.7
20260507052604 54 275 1.7 4.3 0.00 0.00 0.00 70 1020.7
20260507052056 54 252 1.7 4.3 0.00 0.00 0.00 70 1020.7
20260507051838 54 263 1.7 3.5 0.00 0.00 0.00 70 1020.7
20260507051050 54 246 1.7 3.5 0.00 0.00 0.00 70 1020.7
20260507050542 54 281 2.6 4.3 0.00 0.00 0.00 70 1020.7
20260507050036 54 263 3.5 7.0 0.00 0.00 0.00 69 1020.7
20260507045533 55 271 5.2 11.3 0.00 0.00 0.00 69 1020.7
20260507045035 55 284 5.2 11.3 0.00 0.00 0.00 69 1020.7
20260507044534 55 285 3.5 8.7 0.00 0.00 0.00 68 1020.7
20260507044032 55 228 3.5 9.6 0.00 0.00 0.00 68 1020.7
20260507043531 55 309 4.3 9.6 0.00 0.00 0.00 69 1020.7
20260507043031 55 302 5.2 12.2 0.00 0.00 0.00 69 1020.7
20260507042532 55 265 5.2 12.2 0.00 0.00 0.00 69 1020.7
20260507042031 55 266 5.2 10.4 0.00 0.00 0.00 69 1020.7
20260507041540 55 279 6.1 12.2 0.00 0.00 0.00 69 1020.7
20260507041034 55 309 4.3 12.2 0.00 0.00 0.00 70 1020.7
20260507040603 55 290 4.3 11.3 0.00 0.00 0.00 71 1020.7
20260507035817 55 261 7.0 13.0 0.00 0.00 0.00 72 1020.7
20260507035315 55 262 6.1 13.0 0.00 0.00 0.00 72 1020.6
20260507034531 55 286 4.3 8.7 0.00 0.00 0.00 72 1020.6
20260507034033 55 262 4.3 8.7 0.00 0.00 0.00 72 1020.6
20260507033812 55 269 6.1 12.2 0.00 0.00 0.00 72 1020.4
20260507033034 55 334 7.0 12.2 0.00 0.00 0.00 72 1020.4
20260507032806 55 279 7.8 13.9 0.00 0.00 0.00 72 1020.4
20260507032025 55 343 7.0 13.9 0.00 0.00 0.00 72 1020.4
20260507031523 55 253 6.1 11.3 0.00 0.00 0.00 70 1020.4
20260507031024 55 278 6.1 12.2 0.00 0.00 0.00 71 1020.4
20260507030523 56 283 5.2 12.2 0.00 0.00 0.00 71 1020.2
20260507030021 56 299 4.3 9.6 0.00 0.00 0.00 70 1020.2
20260507025809 56 290 5.2 9.6 0.00 0.00 0.00 70 1020.2
20260507025018 56 256 4.3 9.6 0.00 0.00 0.00 70 1020.2
20260507024515 56 287 4.3 9.6 0.00 0.00 0.00 70 1020.2
20260507024014 56 310 4.3 9.6 0.00 0.00 0.00 70 1020.2
20260507023516 56 294 5.2 9.6 0.00 0.00 0.00 69 1020.0
20260507023015 56 295 5.2 9.6 0.00 0.00 0.00 69 1020.0
20260507022513 56 305 5.2 11.3 0.00 0.00 0.00 70 1020.0
20260507022012 56 313 6.1 12.2 0.00 0.00 0.00 71 1020.1
20260507021514 56 307 7.8 13.0 0.00 0.00 0.00 70 1020.1
20260507021014 56 308 7.8 13.0 0.00 0.00 0.00 71 1020.1
20260507020511 56 331 7.0 12.2 0.00 0.00 0.00 70 1020.1
20260507020010 56 286 7.0 12.2 0.00 0.00 0.00 71 1020.1
20260507015532 56 243 6.1 10.4 0.00 0.00 0.00 71 1020.1
20260507014501 56 291 8.7 17.4 0.00 0.00 0.00 71 1020.1
20260507013952 56 311 6.1 13.9 0.00 0.00 0.00 69 1020.1
20260507013448 57 333 4.3 10.4 0.00 0.00 0.00 68 1020.1
20260507012942 57 304 5.2 11.3 0.00 0.00 0.00 68 1020.1
20260507012437 57 321 4.3 11.3 0.00 0.00 0.00 68 1020.1
20260507011937 58 250 2.6 10.4 0.00 0.00 0.00 67 1020.1
20260507011439 58 239 3.5 7.8 0.00 0.00 0.00 67 1020.1
20260507010940 58 269 5.2 12.2 0.00 0.00 0.00 67 1020.1
20260507010439 58 334 4.3 12.2 0.00 0.00 0.00 67 1020.1
20260507005935 58 294 3.5 8.7 0.00 0.00 0.00 67 1020.1
20260507005433 58 242 4.3 10.4 0.00 0.00 0.00 66 1020.1
20260507004933 58 263 3.5 10.4 0.00 0.00 0.00 66 1020.0
20260507004434 58 264 2.6 6.1 0.00 0.00 0.00 67 1020.0
20260507004000 58 265 4.3 8.7 0.00 0.00 0.00 67 1020.0
20260507003216 58 284 5.2 10.4 0.00 0.00 0.00 67 1020.0
20260507002429 58 248 5.2 14.8 0.00 0.00 0.00 66 1020.0
20260507001931 58 314 5.2 14.8 0.00 0.00 0.00 67 1020.1
20260507001433 58 277 5.2 8.7 0.00 0.00 0.00 67 1020.1
20260507000927 57 298 5.2 10.4 0.00 0.00 0.00 67 1020.1
20260507000420 57 274 6.1 13.0 0.00 0.00 0.00 66 1020.1
20260506235918 57 316 5.2 13.0 0.00 0.00 0.00 67 1020.1
20260506235417 57 293 4.3 9.6 0.00 0.00 0.00 69 1020.1
20260506234917 57 281 4.3 11.3 0.00 0.00 0.00 70 1020.2
20260506234658 57 310 3.5 11.3 0.00 0.00 0.00 69 1020.2
20260506233916 57 304 3.5 8.7 0.00 0.00 0.00 69 1020.2
20260506233417 57 304 4.3 8.7 0.00 0.00 0.00 70 1020.2
20260506233158 57 277 5.2 10.4 0.00 0.00 0.00 70 1020.2
20260506232418 57 272 4.3 10.4 0.00 0.00 0.00 70 1020.2
20260506231911 57 256 2.6 5.2 0.00 0.00 0.00 70 1020.2
20260506231411 57 277 3.5 9.6 0.00 0.00 0.00 70 1020.2
20260506230911 57 313 4.3 9.6 0.00 0.00 0.00 69 1020.2
20260506230416 57 304 5.2 9.6 0.00 0.00 0.00 68 1020.2
20260506225909 57 255 5.2 9.6 0.00 0.00 0.00 68 1020.2
20260506225653 57 247 5.2 11.3 0.00 0.00 0.00 68 1020.2
20260506224907 57 278 5.2 11.3 0.00 0.00 0.00 69 1020.2
20260506224406 57 265 6.1 14.8 0.00 0.00 0.00 69 1020.2
20260506224148 57 224 7.0 14.8 0.00 0.00 0.00 68 1020.2
20260506223405 57 167 6.1 11.3 0.00 0.00 0.00 69 1020.2
20260506222903 57 176 7.0 13.9 0.00 0.00 0.00 69 1020.2
20260506222402 57 212 6.1 13.9 0.00 0.00 0.00 69 1020.2
20260506221906 57 217 5.2 11.3 0.00 0.00 0.00 69 1020.4
20260506221401 57 265 5.2 13.0 0.00 0.00 0.00 68 1020.4
20260506220852 57 190 5.2 13.0 0.00 0.00 0.00 68 1020.4
20260506220358 57 263 5.2 10.4 0.00 0.00 0.00 67 1020.3
20260506215851 57 242 5.2 10.4 0.00 0.00 0.00 67 1020.3